Location: A�n Tadlesse
(35.0351°N, 0.5353°E)
Time: 01:13:44
(UTC+00:00)

Cosmos 1328 - Pass Details

Date: 21 October 2019
Orbit: 531 x 553 km, 82.5° (Epoch: 14 November)

Event Time Altitude Azimuth Distance (km) Brightness Sun altitude
Rises 17:39:41 0° 359° (N) 2,697 7.3 -5.6°
Reaches altitude 10° 17:41:54 10° 5° (N) 1,798 6.3 -6.0°
Maximum altitude 17:45:44 48° 81° (E) 700 4.0 -6.8°
Drops below altitude 10° 17:49:31 10° 157° (SSE) 1,776 6.3 -7.6°
Sets 17:51:42 0° 163° (SSE) 2,660 7.2 -8.0°
